Regional Weather Roundup
Issued by NWS

Home | Current Version | Previous Version | Text Only | Print | Product List | Glossary Off
Versions: 1 2 3 4 5 6 7 8 9 10 11 12 13 14 15 16 17 18 19 20 21 22 23 24 25 26 27 28 29 30 31 32 33 34 35 36 37 38 39 40 41 42 43 44 45 46 47 48 49 50

000
ASUS43 KLOT 180010
RWRIL

ILLINOIS REGIONAL WEATHER ROUNDUP
NATIONAL WEATHER SERVICE CHICAGO/ROMEOVILLE IL
700 PM CDT THU APR 17 2014

NOTE: "FAIR" INDICATES FEW OR NO CLOUDS BELOW 12,000 FEET WITH NO
SIGNIFICANT WEATHER AND/OR OBSTRUCTIONS TO VISIBILITY.

* THESE STATIONS ARE NOT UNDER NWS QUALITY CONTROL. THEY ALSO MAY NOT
  REPORT WEATHER SUCH AS PRECIPITATION OR FOG.

ILZ001-002-007-009-015-016-024-180100-
NORTHWEST ILLINOIS

CITY           SKY/WX    TMP DP  RH WIND       PRES   REMARKS
MOLINE         MOCLDY    53  34  48 SW3       30.24R HAZE
6HR MIN TEMP:  50; 6HR MAX TEMP:  56;

STERLING*      CLOUDY    55  37  50 W7        30.23R
SAVANNA*       PTCLDY    55  36  49 W6        30.23R
$$

ILZ003-004-008-010-011-017-018-180100-
NORTH CENTRAL ILLINOIS

CITY           SKY/WX    TMP DP  RH WIND       PRES   REMARKS
ROCKFORD       CLOUDY    55  37  50 W6        30.23S
6HR MIN TEMP:  50; 6HR MAX TEMP:  58;

FREEPORT*      MOCLDY    56  38  50 W5        30.23R
ROCHELLE*      CLOUDY    55  37  50 W9        30.23R
DE KALB*       CLOUDY    53  36  52 SW9       30.22S
PERU*          CLOUDY    55  38  52 CALM      30.24R
$$

ILZ005-006-012>014-019>023-180100-
NORTHEAST ILLINOIS

CITY           SKY/WX    TMP DP  RH WIND       PRES   REMARKS
CHICAGO-OHARE  CLOUDY    57  36  45 W12       30.20S
6HR MIN TEMP:  57; 6HR MAX TEMP:  62;

CHICAGO-MIDWAY CLOUDY    58  39  49 W9        30.21R
6HR MIN TEMP:  58; 6HR MAX TEMP:  63;

AURORA         CLOUDY    55  38  52 SW8       30.22R
6HR MIN TEMP:  55; 6HR MAX TEMP:  59;

LANSING*       CLOUDY    58  37  46 W8        30.21S
WAUKEGAN       MOCLDY    50  38  63 E6        30.20R
6HR MIN TEMP:  50; 6HR MAX TEMP:  59;

DUPAGE AIRPORT CLOUDY    55  38  52 SW9       30.21R
6HR MIN TEMP:  55; 6HR MAX TEMP:  61;

KANKAKEE*      CLOUDY    57  43  58 W8        30.23R
WHEELING       MOCLDY    58  38  47 SW6       30.22R
6HR MIN TEMP:  58; 6HR MAX TEMP:  62;

MORRIS*        CLOUDY    57  34  41 W8        30.22S
ROMEOVILLE*    CLOUDY    56  38  52 W8        30.22S
NORTHERLY ISL    N/A     59  37  44 W7          N/A
$$

LMZ740>746-180100-
SOUTHERN LAKE MICHIGAN

STATION/POSITION SKY/WX   TEMP    WIND        PRES    VSBY  WAVE
                          AIR SEA DIR/SP/G                  HT/PER
                          (F)     (DEG/KT/KT) (MB)    (MI)  (FT/S)
WAUKEGAN HARBOR            45      90/  8/  9 1024.0R
HARRISON CRIB              59     250/ 11/ 14   N/A
BURNHAM HARBOR             58     260/  6/ 12   N/A
CALUMET HARBOR             60     220/  5/ 12 1023.4R
MICHIGAN CITY              51     350/  2/  2   N/A
$$

ILZ025>027-034>036-040-047-049-050-058-095>099-180100-
WEST-CENTRAL ILLINOIS

CITY           SKY/WX    TMP DP  RH WIND       PRES   REMARKS
QUINCY         LGT RAIN  50  37  61 NW7       30.27S
GALESBURG*     CLOUDY    49  38  65 S7        30.25S
MACOMB*        CLOUDY    50  36  57 W5        30.29S
JACKSONVILLE*  CLOUDY    56  39  53 W6        30.26S
PITTSFIELD*    CLOUDY    55  38  53 W5        30.27S
$$

ILZ028>032-037-038-041>044-048-051>054-059>061-180100-
CENTRAL ILLINOIS

CITY           SKY/WX    TMP DP  RH WIND       PRES   REMARKS
PONTIAC        CLOUDY    57  41  54 W7        30.23S
BLOOMINGTON    CLOUDY    54  38  54 W10       30.25R
DECATUR        MOCLDY    60  39  45 W7        30.24R
PEORIA         CLOUDY    53  36  52 NW8       30.25S
6HR MIN TEMP:  53; 6HR MAX TEMP:  58;

LACON*         CLOUDY    53  37  53 W6        30.25R
LINCOLN*       CLOUDY    57  38  49 NW5       30.25R
SPRINGFIELD    CLOUDY    57  38  48 NW6       30.25S
6HR MIN TEMP:  57; 6HR MAX TEMP:  62;

TAYLORVILLE    CLOUDY    59  39  47 W5        30.24S
$$

ILZ033-039-045-046-055>057-062-063-180100-
EAST-CENTRAL ILLINOIS

CITY           SKY/WX    TMP DP  RH WIND       PRES   REMARKS
CHAMPAIGN      MOCLDY    59  39  47 SW9       30.23S
RANTOUL*       MOCLDY    61  39  44 CALM      30.24S
MATTOON        PTCLDY    63  35  35 SW5       30.23R
PARIS*         PTCLDY    61  41  47 S8        30.25R
$$

ILZ079-100>102-180100-
SOUTHWEST ILLINOIS

CITY           SKY/WX    TMP DP  RH WIND       PRES   REMARKS
ALTON          MOCLDY    63  34  34 VRB3      30.23S
BELLEVILLE     MOCLDY    64  37  36 E3        30.20F
CAHOKIA*       MOCLDY    63  41  44 N10       30.21F
SPARTA*        PTCLDY    63  34  34 SE7       30.23S
$$

ILZ064>066-069>071-074>076-080>082-084>086-088>090-092>094-180100-
SOUTH-CENTRAL ILLINOIS

CITY           SKY/WX    TMP DP  RH WIND       PRES   REMARKS
CARBONDALE     CLEAR     60  41  49 S9        30.23S
6HR MIN TEMP:  60; 6HR MAX TEMP:  68;

CAIRO*         CLEAR     67  41  38 CALM      30.23S
MARION         CLEAR     63  41  45 S6        30.24F
MT. VERNON     CLEAR     61  37  41 S6        30.24F
CENTRALIA*       N/A     62  37  39 CALM      30.23F
SALEM*         PTCLDY    65  38  37 S6        30.24R
METROPOLIS*    CLEAR     65  35  31 S6        30.22F
$$

ILZ067-068-072-073-078-083-087-091-180100-
SOUTHEAST ILLINOIS

CITY           SKY/WX    TMP DP  RH WIND       PRES   REMARKS
FAIRFIELD*     CLEAR     64  41  42 S3        30.23F
HARRISBURG*    CLEAR     64  42  44 SW5       30.24S
ROBINSON*      PTCLDY    63  41  45 S7        30.26S
CARMI*         CLEAR     65  47  53 SE6       30.23F
$$

ABBREVIATIONS USED IN REMARKS
   TC - TEMPERATURE IN CELSIUS
  WCI - WIND CHILL INDEX
   HX - HEAT INDEX
  VSB - VISIBILITY
$$




USA.gov is the U.S. government's official web portal to all federal, state and local government web resources and services.